Parsons, KS

5:40 PM CDT on April 29, 2017 (GMT -0500)
Tri-City

Weather History for KPPF - April, 2013

Change the Weather History Date:

Thursday, April 18, 2013

  Actual Average Record
Temperature  
Mean Temperature 49 °F -  
Max Temperature 62 °F 69 °F 91 °F (2006)
Min Temperature 37 °F 48 °F 27 °F (1953)
Degree Days  
Heating Degree Days 16    
Moisture  
Dew Point 38 °F    
Average Humidity 81    
Maximum Humidity 93    
Minimum Humidity 62    
Precipitation  
Precipitation 0.06 in - - ()
Sea Level Pressure  
Sea Level Pressure 29.77 in    
Wind  
Wind Speed 16 mph (NW)    
Max Wind Speed 24 mph    
Max Gust Speed 33 mph    
Visibility 9 miles    
Events Rain , Thunderstorm    
Averages and records for this station are not official NWS values.
T = Trace of Precipitation, MM = Missing Value Source: NWS Daily Summary

Daily Weather History Graph

Daily Weather History Graph

Search for Another Location

Airport or City:

Trip Planner

Search our weather history database for the weather conditions in past years. The results will help you decide how hot, cold, wet, or windy it might be!

Date:

Astronomy

Apr. 18, 2013 Rise Set
Actual Time 6:42 AM CDT 8:00 PM CDT
Civil Twilight 6:15 AM CDT 8:27 PM CDT
Nautical Twilight 5:43 AM CDT 8:59 PM CDT
Astronomical Twilight 5:09 AM CDT 9:33 PM CDT
Moon 12:57 PM CDT (4/18) 2:13 AM CDT (4/18)
Length of Visible Light 14h 11m
Length of Day
13h 17m
First Quarter, 52% of the Moon is Illuminated
Apr 18
First Quarter
Apr 25
Full
May 2
Last Quarter
May 9
New
May 17
First Quarter

Hourly Weather History & Observations

Time (CDT) Temp. Windchill Dew Point Humidity Pressure Visibility Wind Dir Wind Speed Gust Speed Precip Events Conditions
12:26 AM 59.0 °F - 55.4 °F 88% 29.55 in 6.0 mi SSE 19.6 mph 29.9 mph N/A Rain Rain
12:52 AM 61.0 °F - 57.0 °F 87% 29.57 in 10.0 mi WNW 12.7 mph 19.6 mph N/A   Mostly Cloudy
1:36 AM 53.6 °F - 50.0 °F 88% 29.59 in 10.0 mi NNW 15.0 mph 20.7 mph N/A Thunderstorm Mostly Cloudy
1:52 AM 51.1 °F - 48.0 °F 89% 29.58 in 10.0 mi NNW 23.0 mph 31.1 mph 0.00 in Rain , Thunderstorm Light Rain
2:12 AM 48.2 °F - 46.4 °F 93% 29.55 in 10.0 mi NNE 12.7 mph 24.2 mph 0.00 in   Overcast
2:26 AM 48.2 °F - 46.4 °F 93% 29.57 in 10.0 mi NNE 10.4 mph - 0.00 in   Overcast
2:52 AM 50.0 °F - 46.9 °F 89% 29.55 in 10.0 mi Variable 6.9 mph - 0.00 in   Overcast
3:52 AM 48.9 °F - 46.9 °F 93% 29.57 in 10.0 mi NNW 11.5 mph - N/A   Overcast
4:21 AM 48.2 °F - 44.6 °F 87% 29.59 in 8.0 mi NNW 17.3 mph 24.2 mph 0.03 in Rain , Thunderstorm Light Rain
4:30 AM 46.4 °F 39.8 °F 44.6 °F 93% 29.59 in 10.0 mi NNW 16.1 mph 23.0 mph 0.03 in Rain Light Rain
4:52 AM 46.9 °F - 44.1 °F 90% 29.57 in 10.0 mi NNW 15.0 mph 25.3 mph 0.03 in   Overcast
5:01 AM 46.4 °F 41.1 °F 44.6 °F 93% 29.61 in 10.0 mi NNW 11.5 mph 21.9 mph 0.00 in Rain , Thunderstorm Light Rain
5:52 AM 44.1 °F 36.2 °F 41.0 °F 89% 29.63 in 4.0 mi NW 18.4 mph 26.5 mph 0.03 in Rain , Thunderstorm Light Rain
6:17 AM 42.8 °F 35.1 °F 41.0 °F 93% 29.66 in 10.0 mi NW 16.1 mph 21.9 mph 0.00 in   Overcast
6:41 AM 42.8 °F 35.1 °F 39.2 °F 87% 29.68 in 10.0 mi NW 16.1 mph 26.5 mph 0.00 in   Overcast
6:52 AM 42.1 °F 34.2 °F 39.0 °F 89% 29.68 in 10.0 mi NW 16.1 mph 25.3 mph 0.00 in   Overcast
7:32 AM 41.0 °F 32.2 °F 37.4 °F 87% 29.74 in 10.0 mi NW 18.4 mph 25.3 mph N/A   Overcast
7:52 AM 41.0 °F 32.2 °F 37.0 °F 86% 29.75 in 10.0 mi NW 18.4 mph 25.3 mph N/A   Overcast
8:11 AM 39.2 °F 30.8 °F 37.4 °F 93% 29.77 in 4.0 mi NW 15.0 mph 26.5 mph 0.00 in Rain Light Rain
8:30 AM 39.2 °F 29.0 °F 37.4 °F 93% 29.77 in 3.0 mi NW 21.9 mph 27.6 mph 0.00 in Rain Light Rain
8:52 AM 39.9 °F 29.5 °F 36.0 °F 86% 29.78 in 7.0 mi NW 24.2 mph 33.4 mph 0.00 in   Overcast
9:00 AM 39.2 °F 29.8 °F 37.4 °F 93% 29.79 in 6.0 mi NW 18.4 mph 33.4 mph 0.00 in Rain Light Rain
9:07 AM 39.2 °F 30.2 °F 35.6 °F 87% 29.81 in 7.0 mi NW 17.3 mph 27.6 mph 0.00 in Rain Light Rain
9:52 AM 39.0 °F 30.6 °F 35.1 °F 86% 29.84 in 10.0 mi WNW 15.0 mph 24.2 mph 0.00 in   Overcast
10:04 AM 39.2 °F 30.2 °F 35.6 °F 87% 29.84 in 10.0 mi WNW 17.3 mph 25.3 mph N/A   Overcast
10:52 AM 39.0 °F 28.5 °F 33.1 °F 79% 29.86 in 10.0 mi NW 23.0 mph 32.2 mph N/A   Overcast
11:52 AM 39.0 °F 29.6 °F 32.0 °F 76% 29.89 in 10.0 mi NW 18.4 mph 26.5 mph N/A   Overcast
12:52 PM 41.0 °F 31.1 °F 32.0 °F 70% 29.88 in 10.0 mi WNW 23.0 mph 26.5 mph N/A   Overcast
1:52 PM 42.1 °F 34.2 °F 33.1 °F 70% 29.89 in 10.0 mi NW 16.1 mph 24.2 mph N/A   Overcast
2:52 PM 43.0 °F 34.5 °F 32.0 °F 65% 29.91 in 10.0 mi NW 19.6 mph 27.6 mph N/A   Overcast
3:18 PM 42.8 °F 34.5 °F 32.0 °F 66% 29.91 in 10.0 mi NW 18.4 mph 28.8 mph N/A   Overcast
3:52 PM 45.0 °F 37.9 °F 33.1 °F 63% 29.91 in 10.0 mi WNW 16.1 mph 25.3 mph N/A   Overcast
4:52 PM 44.1 °F 36.2 °F 32.0 °F 63% 29.94 in 10.0 mi WNW 18.4 mph 25.3 mph N/A   Overcast
5:52 PM 42.1 °F 32.6 °F 30.0 °F 62% 29.97 in 10.0 mi NW 23.0 mph 28.8 mph N/A   Overcast
6:52 PM 42.1 °F 34.2 °F 30.0 °F 62% 29.99 in 10.0 mi NW 16.1 mph 26.5 mph N/A   Overcast
7:52 PM 39.9 °F 30.8 °F 28.0 °F 63% 30.01 in 10.0 mi NW 18.4 mph 27.6 mph N/A   Overcast
8:52 PM 39.0 °F 30.3 °F 27.0 °F 62% 30.04 in 10.0 mi WNW 16.1 mph 26.5 mph N/A   Overcast
9:52 PM 37.9 °F 31.5 °F 26.1 °F 62% 30.06 in 10.0 mi WNW 9.2 mph 20.7 mph N/A   Overcast
10:52 PM 39.0 °F 32.3 °F 27.0 °F 62% 30.06 in 10.0 mi WNW 10.4 mph - N/A   Overcast
11:52 PM 37.9 °F 31.5 °F 28.0 °F 68% 30.05 in 10.0 mi West 9.2 mph - N/A   Mostly Cloudy